Location: Newark
(46.9000°N, 28.3500°E)
Time: 03:12:11
(UTC+00:00)

Tiros 1 despin weight - Visible Passes

Search period start: 25 August 2019 00:00
Search period end: 04 September 2019 00:00
Orbit: 594 x 642 km, 48.2° (Epoch: 24 August)

Date Brightness Start Highest point End Pass type
(mag) Time Alt. Az. Time Alt. Az. Time Alt. Az.
25 Aug ? 01:16:19 29° W 01:18:34 71° SSW 01:23:09 10° ESE visible
25 Aug ? 23:55:48 31° E 23:55:48 31° E 23:58:12 10° E visible
26 Aug ? 01:32:55 26° W 01:35:07 48° SSW 01:39:31 10° SE visible
27 Aug ? 00:12:45 27° ESE 00:12:45 27° ESE 00:14:51 10° ESE visible
27 Aug ? 01:49:53 24° WSW 01:51:32 30° SW 01:55:32 10° SSE visible
28 Aug ? 00:30:09 18° SE 00:30:09 18° SE 00:31:22 10° SE visible
28 Aug ? 02:07:19 18° SW 02:07:50 18° SW 02:10:58 10° S visible
28 Aug ? 17:56:04 10° SSE 17:57:31 12° SE 17:57:31 12° SE visible
28 Aug ? 19:34:31 10° SW 19:34:41 11° SW 19:34:41 11° SW visible
29 Aug ? 18:10:48 10° SSW 18:14:15 23° SE 18:14:47 22° SE visible
29 Aug ? 19:50:54 10° WSW 19:51:55 17° WSW 19:51:55 17° WSW visible
30 Aug ? 18:26:32 10° SW 18:30:36 37° SSE 18:31:38 32° ESE visible
30 Aug ? 20:07:29 10° WSW 20:08:44 19° WSW 20:08:44 19° WSW visible
31 Aug ? 18:42:43 10° SW 18:47:03 58° SSE 18:48:07 44° ESE visible
31 Aug ? 20:24:10 10° W 20:25:11 17° W 20:25:11 17° W visible
01 Sep ? 17:18:40 10° SSW 17:22:26 28° SE 17:26:13 10° E visible
01 Sep ? 18:59:12 10° WSW 19:03:38 82° SSE 19:04:19 62° E visible
01 Sep ? 20:40:51 10° W 20:41:24 13° W 20:41:24 13° W visible
02 Sep ? 17:34:38 10° SW 17:38:50 45° SSE 17:43:04 10° E visible
02 Sep ? 19:15:50 10° W 19:20:16 81° N 19:20:21 80° NNE visible
03 Sep ? 17:50:58 10° WSW 17:55:21 68° SSE 17:59:11 13° ENE visible
03 Sep ? 19:32:31 10° W 19:36:15 59° WNW 19:36:15 59° WNW visible
